星链-30100 (STARLINK-30100 )

导读

STARLINK-30100是美国太空探索技术公司SpaceX星链互联网卫星项目的一员,于2023年8月11日发射升空,归属星链第二代组网卫星序列。它运行在近地轨道,主要为全球提供低延迟高速卫星互联网服务,尤其覆盖偏远地区与海洋空域,是星链大规模商业组网进程中发射的卫星之一。

Basic Information
目录编号:
57623
目录名称:
STARLINK-30100
国际标识:
2023-119X
轨道中心:
EARTH
卫星名称:
星链-30100
卫星全名:
星链-30100 (STARLINK-30100 )
卫星状态:
在轨 (已飞行1041 天)
发射日期:
2023-08-11 UTC
国别 :
美国 (US)
星等 :
--
Orbit Information
数据来源 国际轨道数据 AOE轨道数据
星历时间 2026-06-16T06:47:25+0800
1天前
查看轨道信息
2026-06-17T07:00:00+0800
23小时前
查看轨道信息
半长轴 6861.192km 6861.185km
偏心率 0.000172 0.000164
轨道倾角 43.005° 43.002°
近地点辐角 264.285° 247.007°
升交点赤经 246.686° 240.990°
平近点角 95.780° 266.913°
近地点 481.874km 481.922km
远地点 484.236km 484.174km
周期 94.267分钟 94.267分钟
每日圈数 15.275782 15.275806
Detailed Information
固有亮度:
5
最大亮度:
0.3
卫星平台:
Starlink v2.0 mini
覆盖范围:
全球
运营商:
太空探索技术公司
运营商所在国:
美国
制造商(研发单位):
太空探索技术公司
制造商所在国:
美国
使用方式:
暂无
Satellite Introduction
星链(Starlink)计划是由太空探索技术公司(SpaceX)提出的一个巨型低轨卫星互联网星座项目,计划在2019年至2024年间在太空搭建由约1.2万颗卫星组成的“星链”网络,其中1584颗将部署在地球上空550千米处的近地轨道,并从2020年开始工作。该卫星仍在工作。
2D Orbit Map
3D Orbit Map
Orbit Altitude Analysis Chart
Orbit Inclination Analysis Chart
Orbit Comprehensive Analysis Chart
View Comprehensive Chart